#timestamp,LO_Frequency,Hit 
1501664415.7,286046986.9,N
1501664435.5,286046987.0,N
1501664455.3,286046987.9,N
1501664475.2,286046988.1,N
1501664495.9,286046986.9,N
1501664515.7,286046989.6,N
1501664535.6,286046987.3,N
1501664555.4,286046985.5,N
1501664575.2,286046986.7,N
1501664595.1,286046983.7,N
1501664596.0,286046983.7,N
1501664615.8,286046982.3,N
1501664635.6,286046984.8,N
1501664655.5,286046986.7,N
1501664675.3,286046983.3,N
1501664695.1,286046982.4,N
1501664715.8,286046982.2,N
1501664735.7,286046983.6,N
1501664755.5,286046981.8,N
1501664775.3,286046982.6,N
1501664795.2,286046983.3,N
1501664815.9,286046980.6,N
1501664835.7,286046984.2,N
1501664855.6,286046983.8,N
1501664875.4,286046986.7,N
1501664895.2,286046985.8,N
1501664915.1,286046982.2,N
1501664916.0,286046982.2,N
1501664935.8,286046985.1,N
1501664955.6,286046983.6,N
1501664975.5,286046980.8,N
1501664995.3,286046982.6,N
1501665015.1,286046982.0,N
1501665035.8,286046983.2,N
1501665055.7,286046983.1,N
1501665075.5,286046981.0,N
1501665095.3,286046983.5,N
1501665115.2,286046982.8,N
1501665135.9,286046980.9,N
1501665155.7,286046980.9,N
1501665175.6,286046981.0,N
1501665195.4,286046983.5,N
1501665215.2,286046983.6,N
1501665235.0,286046981.0,N
1501665236.0,286046981.0,N
1501665255.8,286046980.7,N
1501665275.6,286046980.0,N
1501665295.4,286046979.6,N
1501665315.3,286046980.1,N
1501665335.1,286046979.1,N
1501665355.8,286046980.2,N
1501665375.7,286046979.1,N
1501665395.5,286046981.1,N
1501665415.3,286046980.2,N
1501665435.2,286046977.3,N
1501665455.9,286046977.5,N
1501665475.7,286046978.1,N
1501665495.6,286046975.9,N
1501665515.4,286046976.6,N
1501665535.2,286046975.8,N
1501665555.0,286046976.2,N
1501665555.9,286046976.2,N
1501665575.8,286046976.5,N
1501665595.6,286046976.4,N
1501665615.4,286046974.1,N
1501665635.3,286046972.6,N
1501665655.1,286046971.0,N
1501665675.8,286046971.7,N
1501665695.7,286046972.2,N
1501665715.5,286046969.7,N
1501665735.3,286046972.3,N
1501665755.2,286046971.5,N
1501665775.9,286046973.6,N
1501665795.7,286046972.0,N
1501665815.5,286046967.7,N
1501665835.4,286046969.9,N
1501665855.2,286046972.1,N
1501665875.0,286046969.6,N
1501665875.9,286046969.6,N
1501665895.8,286046970.8,N
1501665915.6,286046968.6,N
1501665935.4,286046968.2,N
1501665955.3,286046968.0,N
1501665975.1,286046967.9,N
1501665976.0,286046967.9,N
1501665995.8,286046970.7,N
1501666015.7,286046968.6,N
1501666035.5,286046966.2,N
1501666055.3,286046968.1,N
1501666075.1,286046966.2,N
1501666095.9,286046966.5,N
1501666115.7,286046966.6,N
1501666135.5,286046964.6,N
1501666155.4,286046966.5,N
1501666175.2,286046966.3,N
1501666195.0,286046966.6,N
1501666195.9,286046966.6,N
1501666215.8,286046968.8,N
1501666235.6,286046966.2,N
1501666255.4,286046967.0,N
1501666275.3,286046964.7,N
1501666295.1,286046964.8,N
1501666296.0,286046964.8,N
1501666315.8,286046964.3,N
1501666335.7,286046963.6,N
1501666355.5,286046965.3,N
1501666375.3,286046965.4,N
1501666395.1,286046964.7,N
1501666415.9,286046965.6,N
1501666435.7,286046963.0,N
1501666455.5,286046965.7,N
1501666475.4,286046965.3,N
1501666495.2,286046964.4,N
1501666515.0,286046963.9,N
1501666515.9,286046963.9,N
1501666535.8,286046961.7,N
1501666555.6,286046962.4,N
1501666575.4,286046962.1,N
1501666595.3,286046962.4,N
1501666615.1,286046962.2,N
1501666616.0,286046962.2,N
1501666635.8,286046959.7,N
1501666655.7,286046962.3,N
1501666675.5,286046962.7,N
1501666695.3,286046959.8,N
1501666715.1,286046960.9,N
1501666735.9,286046958.1,N
1501666755.7,286046957.0,N
1501666775.5,286046957.7,N
1501666795.4,286046955.3,N
1501666815.2,286046957.2,N
1501666835.0,286046957.3,N
1501666835.9,286046957.3,N
1501666855.8,286046956.9,N
1501666875.6,286046959.1,N
1501666895.4,286046956.5,N
1501666915.3,286046958.9,N
1501666935.1,286046959.0,N
1501666936.0,286046959.0,N
1501666955.8,286046959.5,N
1501666975.6,286046956.6,N
1501666995.5,286046959.0,N
1501667015.3,286046958.3,N
1501667035.1,286046958.6,N
1501667055.9,286046957.4,N
1501667075.7,286046957.1,N
1501667095.5,286046957.6,N
1501667115.4,286046955.7,N
1501667135.2,286046955.7,N
1501667155.0,286046955.5,N
1501667155.9,286046955.5,N
1501667175.8,286046955.8,N
1501667195.6,286046954.3,N
1501667215.4,286046953.6,N
1501667235.3,286046952.1,N
1501667255.1,286046951.8,N
1501667256.0,286046951.8,N
1501667275.8,286046951.8,N
1501667295.6,286046951.7,N
1501667315.5,286046954.7,N
1501667335.3,286046954.7,N
1501667355.1,286046951.9,N
1501667375.9,286046954.5,N
1501667395.7,286046954.3,N
1501667415.5,286046953.0,N
1501667435.4,286046950.2,N
1501667455.2,286046950.9,N
1501667475.0,286046948.8,N
1501667475.9,286046948.8,N
1501667495.8,286046951.6,N
1501667515.6,286046951.1,N
1501667535.4,286046949.0,N
1501667555.2,286046948.9,N
1501667575.1,286046948.7,N
1501667576.0,286046948.7,N
1501667595.8,286046949.7,N
1501667615.6,286046949.7,N
1501667635.5,286046947.3,N
1501667655.3,286046947.3,N
1501667675.1,286046947.5,N
1501667695.9,286046948.1,N
1501667715.7,286046947.8,N
1501667735.5,286046946.0,N
1501667755.4,286046946.0,N
1501667775.2,286046946.0,N
1501667795.0,286046947.9,N
1501667795.9,286046947.9,N
1501667815.8,286046945.3,N
1501667835.6,286046945.6,N
1501667855.4,286046946.0,N
1501667875.2,286046946.3,N
1501667895.1,286046944.4,N
1501667896.0,286046944.4,N
1501667915.8,286046944.6,N
1501667935.6,286046942.9,N
1501667955.5,286046942.6,N
1501667975.3,286046944.4,N
1501667995.1,286046944.3,N
